Location: Penum?ka
(16.4840°N, 80.5772°E)
Time: 15:17:28
(UTC+00:00)

Okean O Rocket - Pass Details

Date: 19 May 2025
Orbit: 614 x 636 km, 98.0° (Epoch: 17 June)

Event Time Altitude Azimuth Distance (km) Brightness Sun altitude
Exits shadow 15:05:38 20° 22° (NNE) 1,474 3.6 -27.2°
Drops below altitude 10° 15:07:08 10° 10° (N) 1,998 4.4 -27.5°
Sets 15:09:27 0° 2° (N) 2,902 5.4 -27.9°
